Flag for Poland Weather past 2 weeks in Koszalin, Poland

Now
57 °F

Fog.


Feels Like: 57 °F
Forecast: 45 / 57 °F
Wind: 5 mph from West

Location: Koszalin

Current Time: Apr 26, 2015 at 1:47:31 PM

Latest Report: Apr 26, 2015 at 1:00 PM


Visibility: 5 mi

Pressure: 29.75 "Hg

Humidity: 76%

Dew point: 50 °F

Location of KoszalinLocation

Historic Weather in Koszalin — Graph

°F

Koszalin temperature yesterday

Maximum temperature yesterday: 70 °F (at 2:00 PM)
Minimum temperature yesterday: 40 °F (at 12:00 AM)
Average temperature yesterday: 56 °F

Past Weeks' High & Low Weather Summary

 TemperatureHumidityPressure
High70 °F (Apr 11, 5:00 PM)95% (Apr 25, 1:00 AM)30.32 "Hg (Apr 25, 1:00 AM)
Low35 °F (Apr 21, 6:00 AM)30% (Apr 25, 2:00 PM)29.68 "Hg (Apr 25, 9:00 PM)
Average48 °F71%30.04 "Hg
* Reported Apr 11 12:00 Noon — Apr 26 12:00 Noon, Koszalin, Weather by CustomWeather, © 2015

Note: Actual official high and low records may vary slightly from our data, if they occured in-between our weather recording intervals... More about our weather records

Advertising

Koszalin weather history for previous 24 hours

 ConditionsComfort  
Time TempWeatherWind HumidityBarometerVisibility
12:00 PM
Sun, Apr 26
56 °FOvercast.6 mph81%29.75 "Hg4 mi
11:00 AM56 °FFog.5 mph79%29.75 "Hg5 mi
10:00 AM56 °FOvercast.2 mph78%29.74 "Hg7 mi
9:00 AM56 °FFog.3 mph81%29.73 "Hg6 mi
8:00 AM54 °FFog.3 mph86%29.73 "Hg4 mi
7:00 AM52 °FFog.1 mph90%29.73 "Hg4 mi
6:00 AM51 °FFog.1 mph91%29.72 "Hg3 mi
5:00 AM52 °FFog.2 mph90%29.72 "Hg3 mi
4:00 AM52 °FFog.2 mph90%29.71 "Hg4 mi
3:00 AM53 °FFog.3 mph85%29.71 "Hg4 mi
2:00 AM53 °FFog.2 mph82%29.70 "Hg4 mi
1:00 AM54 °FFog.1 mph78%29.70 "Hg5 mi
12:00 AM54 °FFog.1 mph78%29.72 "Hg5 mi
11:00 PM
Sat, Apr 25
54 °FOvercast.5 mph71%29.72 "Hg6 mi
10:00 PM58 °FOvercast.2 mph59%29.70 "Hg6 mi
9:00 PM60 °FOvercast.3 mph55%29.68 "Hg6 mi
8:00 PM60 °FOvercast.2 mph57%29.69 "Hg6 mi
7:00 PM61 °FOvercast.1 mph56%29.70 "Hg6 mi
6:00 PM59 °FOvercast.1 mph63%29.71 "Hg5 mi
5:00 PM60 °FOvercast.3 mph58%29.74 "Hg5 mi
4:00 PM62 °FOvercast.7 mph47%29.75 "Hg7 mi
3:00 PM68 °FOvercast.5 mph34%29.74 "Hg17 mi
2:00 PM70 °FOvercast.6 mph30%29.74 "Hg17 mi
1:00 PM70 °FOvercast.6 mph32%29.75 "Hg13 mi
Weather by CustomWeather, © 2015

See weather overviewHow to use our weather pages